www.pogodaiklimat.ru

Погода и климат >> Архив погоды >> Россия >> Волгоградская область >> Камышин


ПОГОДА в Камышине

АРХИВ ПОГОДЫ в Камышине

Время (UTC), дата Ветер
(напр.,м/с)
 
Видим.   Явления Облачность Т
(С)
Тd
(С)
f
(%)
Тe
(С)
Тes
(С)
Комфортность P
(гПа)
Po
(гПа)
Тmin
(С)
Tmax
(С)
R
(мм)
R24
(мм)
S
(см)
18 19.05 С 4 20 км 3/0
[Ac trans]
+17.1 +0.7 33 +17 +17 по сезону 1014.1 999.6
21 19.05 СВ 6-10
{11}
20 км 3/0
[Ac trans]
+13.6 -2.2 33 +12 +12 по сезону 1016.3 1001.6
00 20.05 С 2
{10}
20 км ясно +9.9 -1.3 46 +9 +9 по сезону 1017.6 1002.6
03 20.05 СВ 3 20 км ясно +10.6 +1.3 53 +9 +10 прохладно 1019.5 1004.6 +8.5
06 20.05 СВ 2 20 км ясно +12.8 0.0 41 +12 +23 опасность
простуды
1020.5 1005.7
09 20.05 В 3 20 км 3/3 1000 м
[Cu hum]
+15.3 0.0 35 +15 +25 прохладно 1020.1 1005.4
12 20.05 В 2 20 км 3/3 1000 м
[Cu hum]
+17.4 -0.7 29 +18 +25 прохладно 1019.2 1004.6
15 20.05 СВ 2 20 км 4/0
[Ac cuf Ci fib]
+17.6 -0.1 30 +18 +19 по сезону 1018.9 1004.3 +19.1
18 20.05 В 2 20 км 4/0
[Ci fib]
+12.8 +2.0 48 +12 +12 прохладно 1020.7 1005.9
21 20.05 ЮВ 1 20 км ясно +11.6 +0.3 46 +12 +12 по сезону 1021.7 1006.8
00 21.05 штиль 0 20 км ясно +10.2 -1.4 44 +10 +10 прохладно 1022.2 1007.2
03 21.05 ЮЗ 2 20 км 3/0
[Ci fib]
+11.5 +0.8 48 +11 +12 прохладно 1023.0 1008.1 +8.1
06 21.05 В 2 10 км 3/1 1000 м
[Cu hum Ci fib]
+17.2 -0.7 30 +18 +27 тепло 1023.5 1008.8
09 21.05 ЮВ 3 20 км 3/3 1000 м
[Cu hum]
+18.5 -2.7 24 +19 +29 по сезону 1023.2 1008.6
12 21.05 Ю 3 20 км 4/1 1000 м
[Cu hum Ci fib]
+20.1 -1.7 23 +20 +28 по сезону 1022.1 1007.6
15 21.05 Ю 4 20 км 8/0
[Ci fib]
+19.4 -0.6 26 +19 +20 по сезону 1021.1 1006.6 +20.4
18 21.05 ЮЗ 4 20 км 6/0
[Ci fib]
+14.6 0.0 37 +14 +14 прохладно 1021.3 1006.5
21 21.05 ЮЗ 5 20 км 3/0
[Ci fib]
+13.0 -1.5 37 +11 +11 прохладно 1021.3 1006.4
00 22.05 ЮЗ 5 20 км 4/0
[Ci fib]
+13.3 -1.5 36 +12 +12 по сезону 1020.5 1005.7
03 22.05 ЮЗ 4 10 км 8/0
[Ci fib]
+15.1 +0.6 37 +14 +15 по сезону 1020.2 1005.5 +11.6
06 22.05 ЮЗ 5 20 км 6/0
[Ci fib]
+19.7 +5.9 40 +20 +25 тепло 1019.4 1004.9
09 22.05 Ю 8-10
{10}
20 км 6/3 1000 м
[Cu hum Ci fib]
+21.7 +4.2 32 +22 +24 комфорт 1018.0 1003.6
12 22.05 Ю 6
{10}
20 км 9/3 1500 м
[Cu hum Ci sp]
+22.8 +0.6 23 +22 +25 комфорт 1016.6 1002.3
15 22.05 Ю 4 20 км 9/0
[Ac trans]
+21.1 +1.0 26 +21 +21 комфорт 1015.5 1001.1 +22.9
18 22.05 ЮЗ 2 20 км 4/0
[Ac trans]
+16.4 +2.6 40 +17 +17 по сезону 1015.5 1000.9
21 22.05 Ю 3 20 км 4/0
[Ac trans]
+15.0 +2.7 44 +14 +14 по сезону 1014.2 999.5
00 23.05 Ю 5 20 км 3/0
[Ac trans]
+12.7 +3.9 55 +11 +11 по сезону 1013.0 998.3
03 23.05 Ю 5 10 км 9/0
[Ac trans Ci fib]
+14.3 +6.3 59 +13 +13 по сезону 1011.5 996.9 +12.3
06 23.05 Ю 4 20 км 9/1 600 м
[Sc Ac lent]
+15.3 +9.3 67 +14 +16 прохладно 1010.9 996.4
09 23.05 Ю 6 20 км 9/3 1000 м
[Cu med, cong Ac cast Ci sp]
+20.5 +10.0 51 +22 +25 комфорт 1008.9 994.6
12 23.05 З 1
{17}
10 км гроза, ливневой дождь 10/6 600 м
[Cb cap Ac und]
+15.2 +13.5 90 +16 +17 холодно 1008.6 994.1
15 23.05 Ю 5 20 км {гроза, ливн. осадки} 9/3 600 м
[Cb calv Ac cuf Ci ing]
+18.5 +11.4 63 +19 +19 по сезону 1006.5 992.2 +21.7 8
18 23.05 ЮЗ 4 20 км {гроза, ливн. осадки} 9/0
[Ac trans Ci sp]
+15.8 +10.9 73 +15 +15 прохладно 1006.8 992.3
21 23.05 ЮЗ 4 10 км 3/0
[Ci fib]
+13.7 +11.4 86 +12 +12 прохладно 1006.3 991.8
00 24.05 ЮЗ 4 10 км 3/0
[Ac trans]
+12.8 +10.2 84 +11 +11 прохладно 1005.5 990.9
03 24.05 З 3 10 км 3/0
[Ac trans]
+15.0 +10.7 75 +14 +15 по сезону 1005.4 991.0 +12.4
06 24.05 З 1 10 км 3/0
[Ac cast Ci fib]
+19.9 +12.7 63 +23 +34 комфорт 1005.9 991.7
09 24.05 СЗ 4 20 км 6/4 1000 м
[Cu med, cong Ci fib]
+24.1 +12.0 47 +26 +32 жарко 1006.2 992.2
12 24.05 СВ 4
{11}
10 км в посл. час ливневой дождь 9/6 600 м
[Cb calv Ac cuf]
+23.6 +13.5 53 +26 +27 жарко 1007.1 993.0
15 24.05 СВ 3 10 км {гроза} 8/3 600 м
[Sc diur, vesp Ac cuf]
+22.0 +12.9 56 +25 +25 комфорт 1008.9 994.7 +25.8
18 24.05 В 5
{12}
20 км {гроза} 9/5 600 м
[Sc Ac trans]
+17.3 +10.2 63 +17 +17 по сезону 1011.9 997.5
21 24.05 В 6
{10}
20 км 4/0
[Ac trans]
+13.7 +4.6 54 +12 +12 прохладно 1014.4 999.7
00 25.05 В 6-10
{10}
20 км 9/8 600 м
[Sc Ac trans]
+11.1 +3.5 59 +8 +8 холодно 1016.4 1001.5
03 25.05 В 6
{11}
10 км 3/1 600 м
[Sc Ac lent]
+10.3 +2.4 58 +7 +8 очень
холодно
1017.4 1002.5 +9.6
06 25.05 В 7-11
{11}
20 км 1/0
[Ac lent]
+13.9 +3.2 48 +12 +15 холодно 1017.0 1002.2
09 25.05 В 7
{11}
20 км 6/0
[Ac trans]
+18.3 -0.4 28 +18 +21 прохладно 1016.1 1001.6
12 25.05 ЮВ 5
{11}
20 км 9/0
[Ac cast]
+19.0 +2.2 33 +19 +21 прохладно 1014.5 1000.1
15 25.05 В 5 20 км 8/0
[Ac trans Ci sp]
+19.8 +1.8 30 +20 +20 по сезону 1013.3 998.9 +20.8
18 25.05 В 5 20 км 8/0
[Ac trans Ci sp]
+16.4 +0.2 33 +16 +16 по сезону 1012.8 998.2
21 25.05 В 3 10 км гроза, ливневой дождь 10/6 600 м
[Cb cap Ac As]
+12.5 +4.0 56 +11 +11 холодно 1012.9 998.2
00 26.05 СВ 3 10 км слаб. ливневой дождь {гроза} 10/8 600 м
[Cb calv Ac As]
+11.2 +7.1 76 +9 +9 прохладно 1011.2 996.4
03 26.05 СВ 4 10 км в посл. час ливневой дождь 9/4 600 м
[Cb calv Ac trans]
+11.2 +6.1 71 +9 +9 холодно 1009.9 995.2 +10.9 3
06 26.05 Ю 6
{10}
20 км {ливн. осадки} 4/3 600 м
[Sc Ac lent]
+19.5 +12.9 66 +21 +23 комфорт 1008.8 994.5
09 26.05 Ю 8-12
{12}
20 км 6/3 600 м
[Cu med, cong Ac trans Ci sp]
+21.5 +12.6 57 +24 +26 комфорт 1008.3 994.1
12 26.05 ЮЗ 9-14
{16}
20 км 9/3 1000 м
[Cu med, cong Ac cuf Ci sp]
+21.8 +11.1 51 +24 +24 комфорт 1007.8 993.6
15 26.05 ЮЗ 6
{15}
20 км осадки на расстоянии 8/3 600 м
[Cb calv Ac cuf Ci ing]
+19.2 +11.2 60 +20 +20 по сезону 1007.6 993.3 +23.4

 

Местоположение метеостанции Камышин (Волгоградская область, Россия): широта 50.07 долгота 45.37 высота над уровнем моря 119 м.

В архиве по умолчанию представлена погода в Камышине за последнюю неделю. Архивные данные за месяц целиком и за предыдущие месяцы, начиная с января 2011 года, Вы можете получить, выбрав интересующий диапазон дат из раскрывающегося списка и нажав кнопку "Ввод!".


*Определитесь, кто Вы:
робот инопланетянин человек

Внимание! Время в таблицах - всемирное. Для получения местного времени необходимо прибавить поправку, которая равна 3 ч.

Смотрите также архив погоды в соседних городах и на ближайших метеорологических станциях:

Погода в Ольховке (Волгоградская область, Россия) (63 км)
Погода в Даниловке (Волгоградская область, Россия) (95 км)
Погода в Рудне (Волгоградская область, Россия) (102 км)
Погода в Палласовке (Волгоградская область, Россия) (108 км)
Погода в Сплавнухе (Саратовская область, Россия) (111 км)
Погода в Фролове (Волгоградская область, Россия) (125 км)
Погода в Жанибеке (Западно-Казахстанская область, Казахстан) (127 км)
Погода в Иловле (Волгоградская область, Россия) (131 км)
Погода в Жанаказане (Западно-Казахстанская область, Казахстан) (133 км)
Погода в Эльтоне (Волгоградская область, Россия) (149 км)

Пояснения к столбцам:

Ветер - указаны скорость ветра в м/с - средняя за 10 мин, порывы в срок и между сроками (в фигурных скобках) и направление, откуда дует ветер: С - северный, СВ - северо-восточный, В - восточный, ЮВ - юго-восточный, Ю - южный, ЮЗ - юго-западный, З - западный, СЗ - северо-западный.
Видимость - горизонтальная дальность видимости в метрах или километрах. При видимости от 1 до 10 км при отсутствии осадков обычно наблюдается дымка, при ухудшении видимости до 1 км и менее - туман. В сухую погоду видимость может ухудшаться дымом, пылью или мглою.
Явления - указаны атмосферные явления, наблюдавшиеся в срок или в последний час перед сроком; фигурными скобками обозначены явления, наблюдавшиеся между сроками (за 1-3 часа до срока); квадратными скобками обозначены град или гололедные отложения с указанием их диаметра в мм.
Облачность - указаны через наклонную черту общая и нижняя облачность в баллах и высота нижней границы облаков в метрах; квадратными скобками обозначены формы облаков: Ci - перистые, Cs - перисто-слоистые, Cc - перисто-кучевые, Ac - высококучевые, As - высокослоистые, Sc - слоисто-кучевые, Ns - слоисто-дождевые, Cu - кучевые, Cb - кучево-дождевые. Подробнее классификацию облаков см. в Атласе облаков (PDF).
T - Температура воздуха - температура, измеренная на высоте 2 м над землей.
Td - Температура точки росы - температура, при понижении до которой содержащийся в воздухе водяной пар достигнет насыщения.
f - Относительная влажность воздуха - влажноcть воздуха, измеренная на высоте 2 м над землей.
Te - Эффективная температура - температура, которую ощущает одетый по сезону человек в тени. Характеристика душности погоды. При расчете учитывается влияние влажности воздуха и скорости ветра на теплоощущения человека.
Tes - Эффективная температура на солнце - температура, которую ощущает человек, с поправкой на солнечный нагрев. Характеристика знойности погоды. Зависит от высоты солнца над горизонтом, облачности и скорости ветра. Ночью, в пасмурную погоду, а также при ветре 12 м/с и более поправка равна нулю.
P - Атмосферное давление - приведенное к уровню моря атмосферное давление.
Po - Атмосферное давление - измеренное на уровне метеостанции атмосферное давление.
Tmin - Минимальная температура - минимум температуры воздуха на высоте 2 м над землей.
Tmax - Максимальная температура - максимум температуры воздуха на высоте 2 м над землей.
R - Количество осадков - Количество выпавших осадков за период времени, мм. При наведении курсора мыши на число - период времени, за который выпало указанное количество осадков.
R24 - Количество осадков - Количество выпавших осадков за 24 часа, мм.
S - Снежный покров - Высота снежного покрова, см. При наведении курсора мыши на число - состояние снежного покрова и степень покрытия местности в баллах.